N694PB KDAL-KICT

Flight info

Callsign N694PB
Flight time 1h 4m
Altitude 29000
Route IRW J23 JAMEY
Aircraft TBM9/L-SDFGRWY/L

Departure

Time 2026-05-06 15:39
Airport Dallas Love Field (KDAL)

Arrival

Time 2026-05-06 16:44
Airport Wichita Dwight D. Eisenhower National Airport (KICT)
Time Latitude Longitude Altitude Speed Heading
2026-05-06 15:32 32.85512 -96.85035 451 ft 0 kts 165°
2026-05-06 15:35 32.85493 -96.85042 478 ft 5 kts 216°
2026-05-06 15:36 32.85462 -96.85095 473 ft 10 kts 229°
2026-05-06 15:36 32.85396 -96.85112 479 ft 13 kts 136°
2026-05-06 15:36 32.85317 -96.85022 479 ft 18 kts 136°
2026-05-06 15:36 32.85213 -96.84905 479 ft 23 kts 135°
2026-05-06 15:37 32.85090 -96.84760 479 ft 27 kts 135°
2026-05-06 15:37 32.84948 -96.84594 479 ft 30 kts 133°
2026-05-06 15:37 32.84861 -96.84505 475 ft 8 kts 174°
2026-05-06 15:37 32.84809 -96.84526 478 ft 8 kts 224°
2026-05-06 15:38 32.84791 -96.84586 483 ft 9 kts 291°
2026-05-06 15:38 32.84860 -96.84673 480 ft 39 kts 318°
2026-05-06 15:38 32.85174 -96.85045 484 ft 87 kts 319°
2026-05-06 15:38 32.85911 -96.85847 657 ft 129 kts 316°
2026-05-06 15:39 32.86616 -96.86690 760 ft 158 kts 319°
2026-05-06 15:39 32.87407 -96.87660 1190 ft 163 kts 315°
2026-05-06 15:39 32.88150 -96.88684 1720 ft 164 kts 315°
2026-05-06 15:39 32.88907 -96.89734 2146 ft 172 kts 316°
2026-05-06 15:40 32.89430 -96.90483 2461 ft 175 kts 316°
2026-05-06 15:40 32.90198 -96.91589 3012 ft 172 kts 315°
2026-05-06 15:40 32.90964 -96.92672 3488 ft 172 kts 314°
2026-05-06 15:40 32.91787 -96.93712 3895 ft 173 kts 315°
2026-05-06 15:41 32.92811 -96.94453 4327 ft 180 kts 346°
2026-05-06 15:41 32.94085 -96.94321 4695 ft 194 kts 15°
2026-05-06 15:41 32.95388 -96.93807 5084 ft 200 kts 16°
2026-05-06 15:41 32.96709 -96.93281 5533 ft 200 kts 14°
2026-05-06 15:42 32.98027 -96.92749 5982 ft 200 kts 14°
2026-05-06 15:42 32.99345 -96.92203 6406 ft 201 kts 17°
2026-05-06 15:42 33.00680 -96.91676 6778 ft 201 kts
2026-05-06 15:42 33.02013 -96.91827 7195 ft 190 kts 330°
2026-05-06 15:43 33.03144 -96.92623 7609 ft 190 kts 327°
2026-05-06 15:43 33.04367 -96.93257 8038 ft 193 kts 334°
2026-05-06 15:43 33.05643 -96.93794 8409 ft 195 kts 334°
2026-05-06 15:43 33.06922 -96.94337 8878 ft 195 kts 334°
2026-05-06 15:44 33.08198 -96.94887 9323 ft 195 kts 333°
2026-05-06 15:44 33.09477 -96.95441 9757 ft 196 kts 333°
2026-05-06 15:44 33.10759 -96.95995 10164 ft 197 kts 332°
2026-05-06 15:44 33.12058 -96.96559 10507 ft 201 kts 332°
2026-05-06 15:45 33.13384 -96.97133 10856 ft 204 kts 332°
2026-05-06 15:45 33.14725 -96.97713 11202 ft 207 kts 331°
2026-05-06 15:45 33.16090 -96.98304 11556 ft 210 kts 331°
2026-05-06 15:45 33.17472 -96.98902 11914 ft 213 kts 330°
2026-05-06 15:46 33.18871 -96.99509 12272 ft 216 kts 330°
2026-05-06 15:46 33.20291 -97.00123 12637 ft 218 kts 329°
2026-05-06 15:46 33.21731 -97.00748 12990 ft 222 kts 329°
2026-05-06 15:46 33.23194 -97.01383 13359 ft 225 kts 329°
2026-05-06 15:47 33.24672 -97.02024 13719 ft 228 kts 328°
2026-05-06 15:47 33.26170 -97.02673 14066 ft 230 kts 328°
2026-05-06 15:47 33.27674 -97.03323 14443 ft 230 kts 327°
2026-05-06 15:47 33.29174 -97.03974 14816 ft 229 kts 326°
2026-05-06 15:48 33.30668 -97.04624 15179 ft 229 kts 326°
2026-05-06 15:48 33.32163 -97.05274 15537 ft 229 kts 325°
2026-05-06 15:48 33.33655 -97.05922 15910 ft 228 kts 324°
2026-05-06 15:48 33.35141 -97.06568 16279 ft 227 kts 324°
2026-05-06 15:49 33.36626 -97.07215 16638 ft 227 kts 323°
2026-05-06 15:49 33.38108 -97.07860 17001 ft 227 kts 323°
2026-05-06 15:49 33.39590 -97.08505 17363 ft 226 kts 322°
2026-05-06 15:49 33.41068 -97.09148 17733 ft 226 kts 322°
2026-05-06 15:50 33.42544 -97.09791 18106 ft 226 kts 321°
2026-05-06 15:50 33.44042 -97.10397 18483 ft 233 kts 327°
2026-05-06 15:50 33.45702 -97.10698 18790 ft 250 kts 339°
2026-05-06 15:50 33.47498 -97.10603 19084 ft 266 kts 350°
2026-05-06 15:51 33.49341 -97.10353 19385 ft 267 kts 348°
2026-05-06 15:51 33.51194 -97.10124 19680 ft 268 kts 348°
2026-05-06 15:51 33.53055 -97.09892 19989 ft 270 kts 348°
2026-05-06 15:51 33.54927 -97.09655 20292 ft 271 kts 348°
2026-05-06 15:52 33.56807 -97.09416 20595 ft 272 kts 348°
2026-05-06 15:52 33.58696 -97.09176 20896 ft 274 kts 348°
2026-05-06 15:52 33.60595 -97.08936 21187 ft 275 kts 348°
2026-05-06 15:52 33.62479 -97.08697 21479 ft 276 kts 348°
2026-05-06 15:53 33.64393 -97.08455 21780 ft 278 kts 348°
2026-05-06 15:53 33.66318 -97.08210 22073 ft 279 kts 348°
2026-05-06 15:53 33.68253 -97.07965 22355 ft 280 kts 348°
2026-05-06 15:53 33.70193 -97.07719 22636 ft 281 kts 348°
2026-05-06 15:54 33.72146 -97.07470 22917 ft 283 kts 348°
2026-05-06 15:54 33.74129 -97.07225 23208 ft 284 kts 348°
2026-05-06 15:54 33.76098 -97.06968 23526 ft 284 kts 349°
2026-05-06 15:54 33.78066 -97.06712 23784 ft 285 kts 348°
2026-05-06 15:55 33.80040 -97.06466 23999 ft 286 kts 348°
2026-05-06 15:55 33.81997 -97.06219 24226 ft 287 kts 348°
2026-05-06 15:55 33.83988 -97.05965 24461 ft 288 kts 348°
2026-05-06 15:55 33.85987 -97.05709 24695 ft 289 kts 348°
2026-05-06 15:56 33.87992 -97.05454 24925 ft 291 kts 348°
2026-05-06 15:56 33.90008 -97.05197 25154 ft 292 kts 348°
2026-05-06 15:56 33.92034 -97.04939 25377 ft 293 kts 348°
2026-05-06 15:56 33.94066 -97.04680 25595 ft 294 kts 348°
2026-05-06 15:57 33.96106 -97.04419 25813 ft 296 kts 348°
2026-05-06 15:57 33.98155 -97.04157 26027 ft 297 kts 348°
2026-05-06 15:57 34.00214 -97.03894 26223 ft 298 kts 348°
2026-05-06 15:57 34.02278 -97.03630 26472 ft 299 kts 348°
2026-05-06 15:58 34.04355 -97.03364 26673 ft 300 kts 348°
2026-05-06 15:58 34.06438 -97.03098 26876 ft 302 kts 348°
2026-05-06 15:58 34.08526 -97.02830 27079 ft 303 kts 348°
2026-05-06 15:58 34.10625 -97.02561 27281 ft 304 kts 348°
2026-05-06 15:59 34.12729 -97.02291 27482 ft 305 kts 348°
2026-05-06 15:59 34.14843 -97.02021 27671 ft 306 kts 348°
2026-05-06 15:59 34.16967 -97.01748 27854 ft 307 kts 348°
2026-05-06 15:59 34.19094 -97.01474 28038 ft 308 kts 348°
2026-05-06 16:00 34.21230 -97.01200 28221 ft 309 kts 348°
2026-05-06 16:00 34.23372 -97.00924 28391 ft 310 kts 348°
2026-05-06 16:00 34.25521 -97.00649 28549 ft 311 kts 348°
2026-05-06 16:00 34.27679 -97.00371 28751 ft 312 kts 348°
2026-05-06 16:01 34.32068 -96.99810 28906 ft 320 kts 348°
2026-05-06 16:01 34.34284 -96.99538 29030 ft 317 kts 345°
2026-05-06 16:01 34.36453 -96.99571 29026 ft 308 kts 336°
2026-05-06 16:02 34.38542 -96.99927 29028 ft 299 kts 328°
2026-05-06 16:02 34.40517 -97.00575 29024 ft 289 kts 321°
2026-05-06 16:02 34.42351 -97.01477 29045 ft 279 kts 314°
2026-05-06 16:02 34.44051 -97.02543 29110 ft 275 kts 312°
2026-05-06 16:03 34.45760 -97.03624 29122 ft 280 kts 312°
2026-05-06 16:03 34.47505 -97.04716 29129 ft 284 kts 313°
2026-05-06 16:03 34.49271 -97.05821 29143 ft 287 kts 313°
2026-05-06 16:03 34.51055 -97.06944 29146 ft 291 kts 313°
2026-05-06 16:04 34.52864 -97.08084 29157 ft 295 kts 313°
2026-05-06 16:04 34.54677 -97.09222 29159 ft 298 kts 313°
2026-05-06 16:04 34.56523 -97.10380 29165 ft 299 kts 313°
2026-05-06 16:04 34.58373 -97.11545 29171 ft 300 kts 313°
2026-05-06 16:05 34.62091 -97.13891 29183 ft 302 kts 313°
2026-05-06 16:05 34.65832 -97.16250 29189 ft 303 kts 313°
2026-05-06 16:06 34.69585 -97.18622 29183 ft 304 kts 313°
2026-05-06 16:06 34.73338 -97.20995 29182 ft 304 kts 313°
2026-05-06 16:07 34.77095 -97.23374 29183 ft 305 kts 313°
2026-05-06 16:07 34.80839 -97.25741 29184 ft 301 kts 313°
2026-05-06 16:08 34.84549 -97.28099 29171 ft 301 kts 313°
2026-05-06 16:08 34.86403 -97.29276 29162 ft 300 kts 313°
2026-05-06 16:08 34.88252 -97.30450 29156 ft 300 kts 313°
2026-05-06 16:09 34.90099 -97.31625 29148 ft 299 kts 313°
2026-05-06 16:09 34.91944 -97.32798 29141 ft 299 kts 313°
2026-05-06 16:09 34.93790 -97.33972 29134 ft 299 kts 313°
2026-05-06 16:09 34.95631 -97.35144 29126 ft 299 kts 313°
2026-05-06 16:10 34.97472 -97.36317 29118 ft 298 kts 313°
2026-05-06 16:10 34.99312 -97.37489 29114 ft 298 kts 313°
2026-05-06 16:10 35.01147 -97.38659 29107 ft 298 kts 313°
2026-05-06 16:10 35.02983 -97.39831 29122 ft 298 kts 313°
2026-05-06 16:11 35.04823 -97.41005 29113 ft 298 kts 313°
2026-05-06 16:11 35.06659 -97.42177 29114 ft 298 kts 313°
2026-05-06 16:11 35.08497 -97.43350 29110 ft 298 kts 313°
2026-05-06 16:11 35.10333 -97.44524 29110 ft 298 kts 313°
2026-05-06 16:12 35.12166 -97.45697 29108 ft 298 kts 313°
2026-05-06 16:12 35.14002 -97.46871 29104 ft 298 kts 313°
2026-05-06 16:12 35.15836 -97.48045 29145 ft 297 kts 313°
2026-05-06 16:12 35.17666 -97.49217 29142 ft 297 kts 313°
2026-05-06 16:13 35.19496 -97.50390 29129 ft 297 kts 313°
2026-05-06 16:13 35.21328 -97.51566 29131 ft 298 kts 313°
2026-05-06 16:13 35.23163 -97.52743 29131 ft 298 kts 313°
2026-05-06 16:13 35.24997 -97.53919 29136 ft 298 kts 313°
2026-05-06 16:14 35.26830 -97.55095 29190 ft 298 kts 313°
2026-05-06 16:14 35.28670 -97.56277 29157 ft 300 kts 313°
2026-05-06 16:14 35.30616 -97.57332 29165 ft 312 kts 319°
2026-05-06 16:14 35.32682 -97.58168 29168 ft 323 kts 325°
2026-05-06 16:15 35.34916 -97.58774 29166 ft 336 kts 332°
2026-05-06 16:15 35.37280 -97.59102 29165 ft 349 kts 338°
2026-05-06 16:15 35.39751 -97.59112 29165 ft 362 kts 346°
2026-05-06 16:15 35.42296 -97.58766 29163 ft 375 kts 353°
2026-05-06 16:16 35.47463 -97.57201 29157 ft 384 kts 359°
2026-05-06 16:16 35.52637 -97.55570 29178 ft 385 kts 359°
2026-05-06 16:17 35.57837 -97.53902 29161 ft 387 kts 359°
2026-05-06 16:17 35.63055 -97.52236 29152 ft 387 kts 359°
2026-05-06 16:18 35.68269 -97.50564 29147 ft 387 kts 359°
2026-05-06 16:18 35.73481 -97.48894 29157 ft 387 kts 359°
2026-05-06 16:19 35.78690 -97.47221 29158 ft 387 kts 359°
2026-05-06 16:19 35.83899 -97.45547 29158 ft 387 kts 359°
2026-05-06 16:20 35.89104 -97.43871 29125 ft 386 kts 359°
2026-05-06 16:20 35.94305 -97.42195 29127 ft 386 kts 359°
2026-05-06 16:21 35.99504 -97.40516 29130 ft 386 kts 359°
2026-05-06 16:21 36.04707 -97.38836 29151 ft 387 kts 359°
2026-05-06 16:22 36.09917 -97.37147 29154 ft 387 kts 359°
2026-05-06 16:22 36.15122 -97.35462 29153 ft 387 kts 359°
2026-05-06 16:23 36.20326 -97.33772 29132 ft 387 kts 359°
2026-05-06 16:23 36.22955 -97.32921 28719 ft 392 kts 359°
2026-05-06 16:23 36.25597 -97.32058 28209 ft 393 kts 360°
2026-05-06 16:24 36.28241 -97.31194 27737 ft 393 kts 360°
2026-05-06 16:24 36.29996 -97.30623 27353 ft 394 kts
2026-05-06 16:24 36.32650 -97.29759 26822 ft 394 kts
2026-05-06 16:24 36.35303 -97.28894 26303 ft 395 kts
2026-05-06 16:25 36.38820 -97.27744 25610 ft 395 kts
2026-05-06 16:25 36.41479 -97.26875 25087 ft 395 kts
2026-05-06 16:25 36.43271 -97.26289 24748 ft 395 kts
2026-05-06 16:25 36.46794 -97.25137 24061 ft 395 kts
2026-05-06 16:26 36.48589 -97.24549 23706 ft 395 kts
2026-05-06 16:26 36.51248 -97.23676 23131 ft 394 kts
2026-05-06 16:26 36.53896 -97.22806 22629 ft 393 kts
2026-05-06 16:26 36.56531 -97.21941 22120 ft 392 kts
2026-05-06 16:27 36.59165 -97.21077 21606 ft 390 kts
2026-05-06 16:27 36.61788 -97.20214 21096 ft 390 kts
2026-05-06 16:27 36.64373 -97.19364 20593 ft 389 kts
2026-05-06 16:27 36.66985 -97.18510 20085 ft 388 kts
2026-05-06 16:28 36.69597 -97.17653 19573 ft 388 kts
2026-05-06 16:28 36.72203 -97.16995 19051 ft 375 kts 354°
2026-05-06 16:28 36.74766 -97.16882 18556 ft 362 kts 346°
2026-05-06 16:28 36.77219 -97.17238 18047 ft 348 kts 337°
2026-05-06 16:29 36.79506 -97.17996 17591 ft 333 kts 329°
2026-05-06 16:29 36.81680 -97.18939 17154 ft 329 kts 329°
2026-05-06 16:29 36.83844 -97.19832 16720 ft 326 kts 330°
2026-05-06 16:29 36.85986 -97.20718 16290 ft 323 kts 330°
2026-05-06 16:30 36.88100 -97.21615 15870 ft 320 kts 330°
2026-05-06 16:30 36.89524 -97.22218 15583 ft 319 kts 330°
2026-05-06 16:30 36.92293 -97.23376 15028 ft 316 kts 331°
2026-05-06 16:30 36.94370 -97.24249 14611 ft 313 kts 331°
2026-05-06 16:31 36.96430 -97.25117 14196 ft 312 kts 332°
2026-05-06 16:31 36.98479 -97.25981 13767 ft 310 kts 332°
2026-05-06 16:31 37.00511 -97.26835 13352 ft 306 kts 333°
2026-05-06 16:31 37.02484 -97.27657 12872 ft 295 kts 333°
2026-05-06 16:32 37.04403 -97.28471 12406 ft 287 kts 333°
2026-05-06 16:32 37.06267 -97.29263 12024 ft 279 kts 334°
2026-05-06 16:32 37.08088 -97.30037 11659 ft 274 kts 334°
2026-05-06 16:32 37.09876 -97.30798 11303 ft 270 kts 335°
2026-05-06 16:33 37.11645 -97.31544 10953 ft 267 kts 336°
2026-05-06 16:33 37.13400 -97.32283 10602 ft 265 kts 337°
2026-05-06 16:33 37.15137 -97.33016 10252 ft 263 kts 337°
2026-05-06 16:34 37.18539 -97.34458 9541 ft 252 kts 338°
2026-05-06 16:34 37.20183 -97.35161 9216 ft 248 kts 339°
2026-05-06 16:34 37.21809 -97.35850 8890 ft 246 kts 339°
2026-05-06 16:34 37.23426 -97.36527 8566 ft 244 kts 340°
2026-05-06 16:35 37.25024 -97.37203 8248 ft 241 kts 341°
2026-05-06 16:35 37.26610 -97.37892 7927 ft 241 kts 342°
2026-05-06 16:35 37.28191 -97.38557 7629 ft 238 kts 343°
2026-05-06 16:35 37.29757 -97.39214 7317 ft 237 kts 344°
2026-05-06 16:36 37.31309 -97.39887 7007 ft 235 kts 345°
2026-05-06 16:36 37.32846 -97.40540 6701 ft 232 kts 345°
2026-05-06 16:36 37.34374 -97.41182 6385 ft 231 kts 346°
2026-05-06 16:36 37.35891 -97.41825 6074 ft 230 kts 345°
2026-05-06 16:37 37.37398 -97.42469 5771 ft 228 kts 346°
2026-05-06 16:37 37.38889 -97.43108 5468 ft 225 kts 346°
2026-05-06 16:37 37.40368 -97.43736 5177 ft 223 kts 346°
2026-05-06 16:37 37.41836 -97.44360 4878 ft 222 kts 346°
2026-05-06 16:38 37.43296 -97.44983 4577 ft 220 kts 346°
2026-05-06 16:38 37.44730 -97.45596 4289 ft 214 kts 346°
2026-05-06 16:38 37.46128 -97.46195 4003 ft 210 kts 346°
2026-05-06 16:38 37.47478 -97.46773 3732 ft 206 kts 346°
2026-05-06 16:39 37.48833 -97.47354 3478 ft 200 kts 345°
2026-05-06 16:39 37.50138 -97.47908 3220 ft 196 kts 347°
2026-05-06 16:39 37.51431 -97.48159 3008 ft 186 kts
2026-05-06 16:39 37.52653 -97.47898 3005 ft 173 kts 19°
2026-05-06 16:40 37.53795 -97.47415 2998 ft 171 kts 21°
2026-05-06 16:40 37.54909 -97.46923 2993 ft 167 kts 22°
2026-05-06 16:40 37.55968 -97.46430 2993 ft 162 kts 22°
2026-05-06 16:40 37.56999 -97.45963 2843 ft 153 kts 21°
2026-05-06 16:41 37.57953 -97.45522 2652 ft 136 kts 22°
2026-05-06 16:41 37.58788 -97.45142 2482 ft 120 kts 22°
2026-05-06 16:41 37.59537 -97.44795 2336 ft 108 kts 22°
2026-05-06 16:41 37.60145 -97.44524 2206 ft 86 kts 23°
2026-05-06 16:42 37.60699 -97.44271 2091 ft 85 kts 22°
2026-05-06 16:42 37.61276 -97.44007 1967 ft 90 kts 20°
2026-05-06 16:42 37.61872 -97.43733 1852 ft 92 kts 22°
2026-05-06 16:42 37.62483 -97.43446 1721 ft 94 kts 18°
2026-05-06 16:43 37.63067 -97.43187 1605 ft 87 kts 23°
2026-05-06 16:43 37.63627 -97.42920 1498 ft 85 kts 18°
2026-05-06 16:43 37.64198 -97.42660 1366 ft 89 kts 19°
2026-05-06 16:43 37.64738 -97.42414 1324 ft 71 kts 19°
2026-05-06 16:44 37.65104 -97.42253 1320 ft 32 kts 17°
2026-05-06 16:44 37.65286 -97.42167 1322 ft 26 kts 21°
2026-05-06 16:44 37.65334 -97.42114 1323 ft 9 kts 88°
2026-05-06 16:44 37.65315 -97.42033 1322 ft 8 kts 106°
2026-05-06 16:45 37.65356 -97.41988 1322 ft 10 kts 17°
2026-05-06 16:45 37.65423 -97.41958 1322 ft 11 kts 21°
2026-05-06 16:45 37.65488 -97.41927 1322 ft 4 kts 20°
2026-05-06 16:45 37.65501 -97.41894 1322 ft 6 kts 111°
2026-05-06 16:46 37.65484 -97.41838 1322 ft 8 kts 110°
2026-05-06 16:46 37.65486 -97.41769 1322 ft 9 kts 30°
2026-05-06 16:46 37.65553 -97.41755 1322 ft 11 kts 354°
2026-05-06 16:46 37.65576 -97.41742 1322 ft 0 kts 109°